Flag for India Weather past 2 weeks in Kannauj, Uttar Pradesh, India

Now
84 °F

Passing clouds.


Feels Like: 96 °F
Forecast: 83 / 100 °F
Wind: No wind

Location: Lucknow / Amausi

Current Time: Aug 31, 2015 at 4:37:25 AM

Latest Report: Aug 31, 2015 at 4:00 AM


Visibility: 2 mi

Pressure: 29.56 "Hg

Humidity: 84%

Dew point: 79 °F

Location of KannaujLocation

Historic Weather in Kannauj — Graph

°F

Kannauj temperature yesterday

Maximum temperature yesterday: 99 °F (at 1:00 PM)
Minimum temperature yesterday: 82 °F (at 3:00 AM)
Average temperature yesterday: 91 °F

Past Weeks' High & Low Weather Summary

 TemperatureHumidityPressure
High99 °F (Aug 26, 1:00 PM)100% (Aug 16, 6:30 AM)29.68 "Hg (Aug 16, 6:30 AM)
Low75 °F (Aug 22, 8:30 AM)50% (Aug 25, 2:30 PM)29.50 "Hg (Aug 22, 5:00 PM)
Average87 °F82%29.59 "Hg
* Reported Aug 16 3:00 AM — Aug 31 3:00 AM, Kannauj, Weather by CustomWeather, © 2015

Note: Actual official high and low records may vary slightly from our data, if they occured in-between our weather recording intervals... More about our weather records

Advertising

Kannauj weather history for previous 24 hours

 ConditionsComfort  
Time TempWeatherWind HumidityBarometerVisibility
3:00 AM
Mon, Aug 31
84 °FPartly cloudy.2 mph84%29.56 "Hg2 mi
2:00 AM86 °FPartly cloudy.2 mph84%29.59 "Hg2 mi
1:00 AM86 °FPartly cloudy.7 mph84%29.59 "Hg2 mi
11:00 PM
Sun, Aug 30
88 °FPassing clouds.No wind84%29.62 "Hg2 mi
10:00 PM88 °FPassing clouds.No wind84%29.59 "Hg2 mi
9:00 PM88 °FPassing clouds.No wind84%29.59 "Hg2 mi
8:30 PM88 °FPassing clouds.No wind84%29.56 "Hg2 mi
8:00 PM90 °FPassing clouds.No wind79%29.56 "Hg3 mi
7:30 PM90 °FPassing clouds.No wind79%29.53 "Hg3 mi
7:00 PM90 °FPassing clouds.No wind100%29.53 "Hg3 mi
6:30 PM91 °FScattered clouds.3 mph75%29.50 "Hg3 mi
6:00 PM95 °FScattered clouds.5 mph67%29.50 "Hg3 mi
5:30 PM95 °FScattered clouds.8 mph67%29.50 "Hg3 mi
5:00 PM97 °FBroken clouds.6 mph60%29.50 "Hg3 mi
4:30 PM97 °FBroken clouds.9 mph60%29.50 "Hg3 mi
4:00 PM97 °FBroken clouds.9 mph60%29.50 "Hg3 mi
3:30 PM99 °FBroken clouds.8 mph57%29.50 "Hg3 mi
3:00 PM99 °FBroken clouds.8 mph57%29.53 "Hg3 mi
2:30 PM99 °FBroken clouds.8 mph60%29.53 "Hg3 mi
2:00 PM99 °FBroken clouds.7 mph57%29.56 "Hg3 mi
1:30 PM99 °FBroken clouds.6 mph60%29.56 "Hg3 mi
1:00 PM99 °FBroken clouds.9 mph60%29.59 "Hg3 mi
12:30 PM97 °FBroken clouds.6 mph63%29.59 "Hg3 mi
12:00 PM97 °FBroken clouds.6 mph63%29.59 "Hg3 mi
11:30 AM97 °FBroken clouds.6 mph63%29.62 "Hg3 mi
11:00 AM95 °FBroken clouds.6 mph63%29.62 "Hg3 mi
10:30 AM95 °FBroken clouds.6 mph71%29.62 "Hg3 mi
10:00 AM95 °FBroken clouds.6 mph67%29.59 "Hg3 mi
9:30 AM93 °FHaze.5 mph71%29.62 "Hg3 mi
8:30 AM90 °FHaze.6 mph79%29.62 "Hg2 mi
8:00 AM88 °FHaze.7 mph84%29.62 "Hg2 mi
7:30 AM86 °FHaze.2 mph94%29.62 "Hg2 mi
7:00 AM84 °FScattered clouds.No wind94%29.59 "Hg2 mi
6:30 AM82 °FScattered clouds.No wind89%29.59 "Hg2 mi
6:00 AM82 °FPartly cloudy.No wind94%29.56 "Hg2 mi
5:30 AM82 °FPartly cloudy.No wind94%29.56 "Hg2 mi
5:00 AM82 °FPassing clouds.No wind94%29.56 "Hg2 mi
4:00 AM82 °FPassing clouds.No wind89%29.56 "Hg2 mi
Weather by CustomWeather, © 2015

See weather overviewHow to use our weather pages